Theta_e
306 307 311 315 316 315 315 314 314 316 316 315 316 318 321 324 326 322 321 324 327 327 330 331 331 330 331 331 331 331 331 331 332 332 332 332 332 332 331 331 330 333 334 334 333 332 331 335 333
306 311 314 314 313 314 314 313 314 315 315 315 315 316 318 319 321 320 323 324 326 325 327 326 327 329 331 331 331 332 332 331 328 325 320 317 315 315 317 322 330 331 330 331 332 332 333 333 333
309 313 314 314 312 313 314 312 314 314 313 315 316 314 315 316 315 320 322 323 326 325 324 326 327 329 331 331 331 330 325 322 320 315 310 308 308 308 308 307 307 308 317 327 331 331 330 330 331
311 313 311 314 314 313 312 314 314 315 315 314 315 317 312 312 313 316 319 323 325 325 325 325 325 327 328 327 324 319 315 313 309 309 309 310 311 310 309 308 307 307 306 306 309 312 317 331 331
311 312 313 313 314 314 313 312 312 314 314 314 314 315 314 311 313 314 317 323 325 324 324 323 324 324 320 316 314 312 309 308 309 310 311 311 310 309 308 306 306 306 306 306 306 306 305 305 315
310 310 312 313 313 311 311 312 312 312 313 313 313 314 313 311 312 313 316 321 322 323 322 322 321 317 313 310 309 308 308 309 310 311 311 310 307 305 305 305 305 305 305 305 305 305 305 305 305
311 312 312 312 311 311 311 308 310 312 312 312 312 314 311 310 312 313 316 319 321 320 318 319 318 314 309 308 308 308 308 310 310 310 308 305 304 304 304 304 304 304 304 305 305 305 305 305 305
309 311 310 310 311 311 310 307 307 309 311 308 310 313 313 310 312 312 315 318 318 318 316 316 314 310 308 308 308 308 309 310 310 307 304 304 304 304 304 303 303 303 303 303 303 303 304 304 305
307 310 311 311 310 312 308 309 307 306 308 307 308 308 309 309 310 311 313 315 316 315 315 314 313 311 308 307 307 308 309 309 307 304 303 303 303 303 303 303 303 303 303 303 303 303 303 303 303
308 310 312 310 310 311 308 308 308 307 308 308 307 307 307 307 308 310 311 312 313 313 313 313 313 312 308 307 307 308 309 307 304 303 303 303 303 303 303 303 303 303 303 303 303 303 303 303 303
307 311 310 308 308 307 308 307 307 308 309 309 309 308 307 307 307 309 310 312 311 311 311 312 311 310 309 308 308 308 307 305 303 302 302 302 302 302 302 302 302 303 303 303 303 303 303 303 303
307 307 307 307 306 306 308 307 308 308 311 309 308 307 307 307 307 307 309 310 310 311 311 310 310 309 309 308 307 306 305 303 302 302 302 301 302 302 302 302 302 302 302 302 302 303 303 303 303
306 307 306 305 305 306 305 307 309 308 307 308 307 307 306 306 306 307 308 309 309 309 309 309 309 308 307 306 305 304 303 302 302 301 301 301 301 301 301 301 301 301 301 302 302 302 302 302 301
308 307 307 306 307 306 306 308 305 309 308 307 305 305 306 306 305 305 306 307 307 308 308 308 307 306 306 305 304 303 302 302 302 302 302 302 301 301 301 301 301 301 301 301 301 301 300 300 300
306 309 308 308 307 308 306 308 307 309 306 305 303 304 304 304 304 304 305 305 306 306 306 307 306 306 305 304 303 303 302 302 302 302 302 302 301 300 300 300 300 300 300 300 300 299 299 299 299
308 308 313 311 307 307 308 315 313 306 304 305 304 303 305 305 305 305 305 305 305 305 305 305 305 305 305 304 303 302 302 302 302 302 302 301 301 300 300 299 299 299 299 299 299 298 298 298 298
309 315 312 312 307 306 308 314 310 303 304 305 304 304 304 305 306 306 306 306 305 304 304 305 305 305 304 303 303 302 302 302 302 302 302 301 300 300 299 299 298 298 298 298 298 297 297 297 297
314 310 311 313 309 306 308 310 307 304 304 305 305 303 303 304 305 305 305 306 305 305 303 304 304 304 303 303 302 302 301 301 301 301 301 300 300 299 298 298 297 297 297 297 297 296 296 297 297
312 313 313 312 307 308 309 309 309 307 304 305 304 303 302 302 303 303 303 303 304 304 304 303 304 304 303 302 301 301 301 301 301 301 300 299 299 297 297 297 296 296 296 296 296 295 296 296 297
309 311 312 309 305 306 309 309 308 308 307 306 306 304 302 300 301 302 302 302 302 302 302 302 303 303 302 301 301 300 300 300 300 300 299 298 297 296 296 296 296 296 295 295 295 295 295 296 296
308 310 312 312 306 304 306 311 311 308 307 306 302 304 301 300 300 300 301 302 302 301 301 302 302 301 301 301 300 300 300 299 299 298 297 296 296 296 295 295 295 295 294 294 294 294 295 295 295
309 308 308 309 308 314 306 319 317 310 305 301 301 300 299 299 298 299 299 300 300 301 301 301 301 300 300 300 300 299 298 297 296 296 296 295 295 295 295 294 294 294 293 293 293 294 294 295 295
309 305 307 308 309 310 309 312 315 304 306 304 301 299 299 298 298 298 298 298 299 299 299 299 299 299 299 298 298 297 296 296 296 296 295 295 294 294 294 293 293 293 293 292 293 293 294 294 295
304 306 306 306 309 311 313 311 317 314 310 306 301 299 298 297 297 297 297 297 297 297 297 297 297 296 296 296 296 296 296 295 295 295 294 293 293 293 292 292 292 292 292 292 293 293 294 294 294
307 308 311 311 311 314 307 310 315 309 303 303 302 299 297 296 296 296 297 297 297 297 297 296 296 296 296 296 295 295 295 294 294 293 293 292 292 292 291 291 291 292 292 292 292 293 293 294 294
308 311 313 315 314 313 302 310 313 302 296 293 298 298 296 296 296 296 297 297 297 297 296 296 296 295 295 294 294 295 294 293 293 292 292 292 291 291 291 291 291 292 292 292 293 292 292 293 293
307 310 309 305 300 309 307 306 304 299 297 295 295 297 296 296 296 296 296 296 296 296 296 296 295 295 294 295 295 295 294 293 293 292 292 292 292 292 292 292 292 292 292 292 292 292 292 293 293
306 306 309 311 311 314 313 307 313 301 301 297 296 297 297 295 295 295 295 295 295 295 295 295 295 296 296 295 295 294 294 293 293 292 292 292 292 291 292 292 292 292 292 292 292 292 292 292 292
306 307 309 309 311 318 317 316 308 305 302 299 298 297 296 295 294 294 295 295 295 295 295 295 295 296 296 295 295 294 294 293 293 292 292 292 292 292 292 293 293 292 292 292 292 292 292 292 292
305 309 307 313 308 304 305 314 295 294 296 300 297 296 295 295 295 295 296 296 296 296 296 295 294 294 295 295 295 294 293 293 293 292 292 292 293 293 293 293 293 293 293 292 293 292 292 293 292
Wind_Speed
3 7 10 6 5 4 5 4 2 5 4 4 4 4 5 3 2 2 5 10 14 17 17 18 17 15 12 9 7 5 5 4 2 0 1 1 1 1 1 3 6 6 5 5 8 9 7 8 10
6 9 8 2 5 7 5 5 8 7 2 4 4 3 4 2 1 0 6 10 17 16 14 17 15 13 11 11 9 7 6 5 3 2 1 0 1 1 1 2 5 7 9 10 10 10 9 10 9
8 12 4 3 4 8 3 5 5 2 4 5 4 4 2 2 3 3 3 12 17 16 14 13 11 11 11 10 9 8 7 6 4 3 1 1 2 2 3 4 4 6 7 8 11 11 13 15 13
7 3 1 5 11 6 4 2 3 2 4 6 4 4 2 5 5 6 7 13 16 16 12 10 10 11 11 10 9 9 8 6 4 3 4 4 5 6 7 7 7 8 9 10 11 13 12 13 16
11 2 6 7 12 4 6 6 5 4 2 4 5 2 2 5 6 6 8 13 15 16 14 12 12 11 11 10 10 9 8 7 6 5 6 7 8 9 10 10 10 11 11 12 12 13 14 14 14
6 2 7 11 15 5 5 10 8 12 8 4 5 3 2 4 8 9 12 15 16 15 14 13 13 12 11 11 10 9 7 6 6 6 8 9 9 10 10 11 11 11 11 12 13 14 15 15 16
5 4 8 11 11 7 4 5 11 10 10 12 3 5 3 6 10 11 14 17 17 17 15 14 13 13 13 12 10 9 8 8 8 8 9 9 9 9 10 11 12 12 13 14 14 14 15 15 16
7 4 5 7 10 11 3 5 3 9 8 5 8 6 5 9 11 12 15 18 18 18 17 16 15 15 15 14 12 11 10 10 10 10 10 9 9 9 10 10 11 12 13 15 16 16 16 16 17
6 6 10 10 8 4 5 6 3 3 3 6 7 3 7 8 11 15 18 20 21 20 19 17 17 16 15 15 13 12 12 12 11 11 10 10 10 10 11 11 12 13 14 16 17 17 17 17 18
9 6 12 7 8 4 4 6 5 4 6 8 6 9 9 8 12 16 20 21 22 21 19 19 17 17 16 15 14 13 12 12 11 11 11 11 11 11 12 13 14 15 16 17 18 19 18 18 18
8 10 10 7 10 6 5 5 5 6 8 12 10 10 12 12 15 18 19 19 19 18 18 18 18 17 16 16 15 14 13 12 12 12 12 12 12 12 13 14 15 17 17 18 18 19 19 19 19
7 13 9 5 9 7 6 4 5 14 12 7 10 10 12 14 15 18 20 19 20 20 19 18 18 17 17 16 16 15 14 13 13 13 13 13 13 14 15 16 17 18 18 19 19 19 20 20 21
12 9 10 12 8 10 6 12 10 17 13 15 16 15 15 12 14 16 18 20 20 20 20 20 19 18 17 17 16 16 15 14 13 13 13 14 15 16 17 18 19 20 21 20 20 20 20 20 20
10 13 10 9 13 11 11 11 7 12 15 22 20 18 21 20 19 20 22 22 22 21 21 21 21 20 19 18 17 16 15 14 13 13 14 15 16 17 18 19 20 21 21 21 21 20 20 19 19
4 5 7 15 12 7 11 10 17 22 12 12 14 15 15 15 15 17 19 23 24 23 22 24 23 23 21 20 18 17 16 15 14 14 15 16 17 18 18 20 21 21 21 20 21 20 19 18 16
5 3 9 3 13 7 14 19 8 13 18 17 16 14 15 15 15 14 16 18 22 25 26 25 26 25 24 22 20 19 17 16 15 14 15 17 18 19 20 21 21 21 20 19 19 19 18 16 16
7 12 13 6 14 7 15 8 5 8 16 17 17 15 16 16 17 18 19 21 22 23 25 28 28 27 26 24 22 19 18 16 16 16 17 18 19 20 21 22 21 20 19 20 19 18 17 15 14
14 10 10 13 9 11 12 17 6 13 13 16 16 14 15 17 19 20 22 24 25 25 24 27 28 28 27 25 22 20 19 18 17 18 19 21 22 24 23 22 20 20 19 19 18 17 16 14 13
12 16 17 10 7 9 16 17 17 19 17 18 18 17 15 16 16 15 14 15 18 23 24 26 28 28 27 25 22 21 20 19 19 20 22 23 24 21 20 20 21 20 20 19 18 16 14 13 11
14 14 15 4 6 7 8 16 15 16 22 28 26 22 19 16 16 14 11 10 11 14 20 23 25 25 25 23 22 20 20 21 22 22 23 23 22 21 21 21 22 21 20 18 16 15 13 12 9
22 23 18 14 3 4 7 21 18 15 22 20 17 21 19 20 19 16 13 11 10 11 14 17 20 21 21 21 21 20 21 22 23 24 24 23 23 24 24 23 22 21 19 18 16 14 12 10 9
19 16 15 11 4 11 2 12 14 11 13 12 17 20 21 20 18 16 15 13 12 12 13 15 16 18 19 19 19 20 21 22 23 23 24 25 26 26 26 24 21 20 19 17 16 15 12 11 9
11 3 8 11 14 9 12 6 9 6 10 15 16 21 21 20 20 19 17 15 14 13 13 14 15 16 17 19 20 21 22 23 24 24 24 24 25 24 24 22 20 18 18 17 16 15 15 13 12
14 8 5 3 4 7 13 14 21 12 8 6 18 24 22 20 20 18 17 16 15 14 14 15 15 16 17 18 19 20 21 22 22 22 22 22 22 22 21 20 19 18 17 17 16 15 14 13 13
9 11 4 5 6 7 6 12 25 2 5 5 16 25 23 22 20 18 17 16 16 15 15 15 15 16 16 17 19 19 20 20 20 20 20 19 19 19 19 18 18 18 17 17 17 15 14 14 13
21 13 6 9 7 5 5 12 8 1 3 4 12 24 23 20 18 17 17 16 16 15 15 15 15 15 16 17 17 18 18 19 19 19 19 19 18 18 18 18 19 19 19 19 18 17 15 14 14
7 9 2 6 2 2 6 7 12 8 4 5 14 23 22 18 18 18 16 15 15 14 14 13 13 14 15 16 17 17 18 18 18 19 19 19 18 19 18 19 20 20 20 20 18 18 16 15 14
6 12 4 4 7 6 7 7 8 8 11 11 14 22 20 17 18 17 15 13 12 11 10 11 12 13 14 15 16 16 17 18 18 19 17 17 18 18 19 19 18 18 18 18 18 17 16 16 14
7 6 5 4 3 6 4 5 2 2 13 16 15 20 21 20 19 17 14 11 9 8 8 9 10 11 13 14 15 15 16 17 17 16 16 16 16 15 15 15 16 16 16 16 17 16 16 15 13
6 5 8 6 6 2 2 5 1 0 1 11 16 19 20 21 19 16 13 10 8 7 7 8 8 9 11 13 13 14 15 15 15 15 13 13 12 13 13 15 16 17 16 15 16 15 14 14 12
Wind_Direction
193 160 154 150 216 239 232 225 287 206 203 188 151 206 229 327 263 3 179 176 170 165 171 186 198 209 205 188 182 175 169 173 176 193 358 358 323 324 253 235 211 211 223 221 225 223 223 241 231
174 155 155 204 245 222 211 192 212 220 94 168 178 185 220 189 247 317 144 173 165 164 169 196 201 206 198 193 185 179 173 180 180 186 158 55 30 357 306 270 240 239 237 239 245 254 251 242 224
174 163 191 235 237 233 245 205 208 219 212 187 188 213 243 147 197 170 202 176 171 172 179 196 198 194 192 192 187 182 182 188 197 213 231 312 326 324 300 286 278 272 259 251 255 256 251 256 258
163 194 118 244 237 251 252 109 165 196 180 213 221 205 203 199 169 190 182 179 179 183 190 205 206 201 198 196 191 187 189 191 208 231 262 285 297 302 301 297 289 282 278 277 271 269 270 265 264
165 219 234 248 249 251 242 253 209 217 194 196 198 183 188 206 198 191 189 181 184 188 195 208 201 203 201 197 198 198 200 205 221 245 269 286 294 295 293 291 288 285 280 276 274 272 273 272 266
163 198 237 244 245 240 247 237 223 234 242 197 208 214 179 196 193 195 186 185 186 195 199 207 203 203 203 206 209 212 219 233 248 267 279 286 289 292 294 294 291 288 285 281 280 280 278 274 273
199 202 253 267 268 272 228 194 223 229 223 212 197 209 185 193 192 187 185 188 193 199 206 209 208 208 212 215 220 225 235 246 259 269 276 276 278 282 285 287 289 290 289 286 282 278 276 275 272
188 213 221 235 257 271 191 201 254 223 214 195 190 216 176 198 187 190 191 195 201 206 209 211 213 212 217 222 226 233 244 256 265 269 271 275 279 282 282 284 286 288 289 288 286 284 281 279 275
172 225 234 234 222 248 170 213 204 241 246 202 202 202 172 176 188 196 201 204 207 210 212 215 217 219 223 230 232 237 245 253 259 264 271 277 281 284 286 289 290 290 291 292 291 289 285 282 278
212 229 229 229 224 236 195 222 187 206 209 237 226 218 214 209 209 209 210 211 214 215 215 217 219 222 225 231 235 240 246 252 259 264 270 276 281 285 289 291 294 297 298 296 295 294 291 286 281
192 239 222 218 220 228 232 225 204 218 216 220 229 219 229 219 218 216 218 220 224 223 222 221 222 225 228 232 239 245 250 253 256 260 265 270 276 282 287 291 295 298 299 298 296 294 292 289 286
204 235 205 199 205 191 228 229 232 226 244 205 224 216 234 234 226 225 221 221 223 222 226 224 226 228 231 236 241 245 247 251 256 262 268 275 282 287 291 295 298 299 299 299 297 294 292 291 288
218 208 203 222 208 218 220 233 247 251 241 242 238 229 228 226 228 222 220 221 225 227 230 230 230 230 231 233 237 241 245 252 259 266 272 279 284 288 292 295 298 301 302 301 299 297 294 290 287
211 220 213 219 217 222 215 240 203 251 235 229 229 228 242 241 232 229 227 229 231 232 232 233 232 232 232 234 236 240 247 255 262 269 277 281 283 286 289 292 295 297 299 300 299 297 295 291 286
164 239 231 226 220 218 213 235 232 248 213 189 201 212 212 214 218 221 224 228 231 234 232 233 233 232 232 234 236 240 248 253 260 270 279 285 287 287 288 291 294 295 296 297 299 299 297 292 286
206 222 245 175 192 196 182 259 238 202 202 204 201 208 211 213 216 219 223 227 230 231 230 229 229 230 231 233 235 239 245 251 260 273 285 290 291 291 292 292 294 295 296 296 297 296 293 289 284
201 245 229 240 195 157 202 244 195 180 193 201 199 208 217 223 230 235 238 239 235 234 230 228 225 227 229 231 234 239 245 251 260 271 282 288 291 293 293 293 292 292 294 297 295 292 289 283 278
222 228 233 229 188 205 205 240 193 198 191 199 205 216 225 232 238 243 244 242 236 233 230 226 224 224 226 229 233 239 245 251 262 274 283 289 292 293 290 288 288 291 293 294 293 290 284 280 275
267 239 241 231 181 211 226 242 239 220 217 219 221 220 221 225 228 228 230 232 231 227 226 224 222 221 223 227 230 238 246 255 265 274 283 288 290 288 287 288 289 290 291 290 288 284 280 276 271
226 237 231 247 165 215 253 254 244 242 233 230 227 220 212 206 207 204 204 206 209 211 214 214 216 218 221 226 233 241 249 258 267 275 281 284 283 283 284 285 286 288 288 285 280 276 273 269 262
232 236 241 243 165 241 288 273 241 237 237 232 228 218 205 201 195 192 187 181 179 184 193 200 207 212 219 227 235 244 253 263 271 278 281 280 280 281 281 281 281 282 281 278 274 268 262 259 260
229 220 237 232 213 248 226 278 235 211 220 215 209 194 190 188 189 190 188 183 178 177 181 190 201 211 220 229 238 249 259 266 271 275 278 279 279 278 278 278 277 275 273 270 266 264 258 253 246
230 29 229 229 236 268 224 256 249 168 230 222 203 196 190 186 188 189 190 191 194 195 197 201 208 218 229 239 248 256 262 268 272 276 277 278 278 276 275 274 273 269 266 264 261 259 256 252 246
146 113 93 113 176 224 219 212 268 215 207 211 192 188 180 177 180 185 191 196 201 206 211 218 225 233 241 250 256 261 266 270 273 276 277 277 277 275 271 269 266 262 260 260 261 259 256 252 249
161 144 153 189 201 235 159 197 246 308 193 190 185 181 177 177 181 189 195 199 204 209 216 224 232 239 247 254 259 264 268 270 271 273 274 275 275 273 269 266 262 259 259 260 261 259 255 250 249
188 183 182 209 199 193 153 222 243 271 92 173 175 168 168 174 184 188 193 200 207 213 221 228 237 243 251 256 261 264 264 266 270 272 272 271 271 269 269 267 263 263 262 260 258 255 252 251 252
168 214 107 107 13 183 203 259 273 191 166 163 161 162 170 176 183 190 195 201 207 213 221 229 238 246 253 257 260 263 264 267 268 267 269 271 270 269 266 266 266 265 262 256 252 251 251 251 254
197 137 146 180 172 220 217 263 247 204 192 170 170 172 173 174 180 181 180 184 191 204 219 232 244 250 255 259 262 265 266 268 269 269 269 270 268 268 270 268 266 262 256 252 249 249 249 252 256
155 177 186 162 197 213 246 241 214 226 183 176 177 174 172 175 177 175 175 177 185 201 220 236 243 249 255 259 262 266 268 266 267 268 268 269 268 265 265 266 261 255 251 249 247 247 248 250 250
227 213 179 197 187 253 5 271 92 63 219 175 169 170 174 176 175 175 177 184 196 214 231 244 253 254 258 262 262 262 265 264 265 263 261 262 263 267 266 260 259 255 250 248 246 244 245 244 237